This demonstration page uses our WeatherBlox Daily Observations layout. Learn more.

Left ArrowRight Arrow

Hourly Observations for September 5, 2020

Temp ( °F °C ) Dew Point ( °F °C ) Humidity (%) Winds ( mph kmh ) Pressure ( in mb ) Visibility ( mi km ) Precip ( " mm )
12:52 am 00:52 Clear 64 17.8 57 13.9 78 78 Calm 30.19 1022 10 16 0.00 0.00
1:52 am 01:52 Clear 63 17.2 55 12.8 76 76 SSE 7 11 30.19 1022 10 16 0.00 0.00
2:52 am 02:52 Clear 62 16.7 56 13.3 80 80 SSE 7 11 30.18 1022 10 16 0.00 0.00
3:52 am 03:52 Clear 61 16.1 55 12.8 81 81 SE 9 15 30.19 1022 10 16 0.00 0.00
4:52 am 04:52 Clear 61 16.1 55 12.8 81 81 SSE 7 11 30.19 1022 10 16 0.00 0.00
5:52 am 05:52 Clear 61 16.1 54 12.2 78 78 S 3 6 30.18 1022 10 16 0.00 0.00
6:52 am 06:52 Clear 57 13.9 53 11.7 87 87 NE 3 6 30.20 1023 10 16 0.00 0.00
7:52 am 07:52 Sunny 60 15.6 56 13.3 86 86 Calm 30.21 1023 10 16 0.00 0.00
8:52 am 08:52 Sunny 67 19.4 56 13.3 68 68 Calm 30.21 1023 10 16 0.00 0.00
9:52 am 09:52 Sunny 71 21.7 56 13.3 59 59 Calm 30.22 1023 10 16 0.00 0.00
10:52 am 10:52 Sunny 78 25.6 58 14.4 50 50 SE 6 9 30.21 1023 10 16 0.00 0.00
11:52 am 11:52 Sunny 83 28.3 61 16.1 48 48 VRB 7 11 30.20 1023 10 16 0.00 0.00
12:52 pm 12:52 Sunny 87 30.6 63 17.2 45 45 S 12 19 30.17 1022 10 16 0.00 0.00
1:52 pm 13:52 Sunny 90 32.2 66 18.9 45 45 S 9 15 30.14 1021 10 16 0.00 0.00
2:52 pm 14:52 Mostly Sunny 92 33.3 67 19.4 44 44 S 13 20 30.11 1020 10 16 0.00 0.00
3:52 pm 15:52 Partly Cloudy 92 33.3 68 20 46 46 SSW 9 15 30.08 1019 10 16 0.00 0.00
4:52 pm 16:52 Mostly Cloudy 93 33.9 69 20.6 46 46 S 13 20 30.05 1018 10 16 0.00 0.00
5:52 pm 17:52 Partly Cloudy 94 34.4 68 20 43 43 S 17 28 30.03 1017 10 16 0.00 0.00
6:52 pm 18:52 Partly Cloudy 93 33.9 65 18.3 40 40 S 14 22 30.02 1017 10 16 0.00 0.00
7:52 pm 19:52 Partly Cloudy 89 31.7 66 18.9 47 47 SSE 9 15 30.01 1016 10 16 0.00 0.00
8:52 pm 20:52 Partly Cloudy 86 30 68 20 55 55 S 12 19 30.00 1016 10 16 0.00 0.00
9:52 pm 21:52 Partly Cloudy 83 28.3 68 20 61 61 SSE 12 19 30.00 1016 10 16 0.00 0.00
10:52 pm 22:52 Partly Cloudy 81 27.2 67 19.4 62 62 SSE 13 20 29.98 1015 10 16 0.00 0.00
11:52 pm 23:52 Partly Cloudy 81 27.2 67 19.4 62 62 S 15 24 29.96 1014 10 16 0.00 0.00

Powered by AerisWeather